Time,TemperatureF,DewpointF,PressureIn,WindDirection,WindDirectionDegrees,WindSpeedMPH,WindSpeedGustMPH,Humidity,HourlyPrecipIn,Conditions,Clouds,dailyrainin,SoftwareType,DateUTC
2013-04-28 00:02:00,52.0,50.0,29.95,NE,54,6.0,6.0,93,0.00,,,0.01,Wunderground v.1.15,2013-04-28 05:02:00,
2013-04-28 00:08:00,52.0,50.0,29.94,ENE,61,7.0,8.0,93,0.00,,,0.01,Wunderground v.1.15,2013-04-28 05:08:00,
2013-04-28 00:13:00,52.0,50.0,29.94,East,81,7.0,7.0,93,0.00,,,0.01,Wunderground v.1.15,2013-04-28 05:13:00,
2013-04-28 00:18:00,52.0,50.0,29.94,ENE,69,7.0,8.0,93,0.00,,,0.01,Wunderground v.1.15,2013-04-28 05:18:00,
2013-04-28 00:24:00,52.0,50.0,29.94,ENE,69,7.0,7.0,93,0.00,,,0.01,Wunderground v.1.15,2013-04-28 05:24:00,
2013-04-28 00:29:00,52.0,50.0,29.94,ENE,70,7.0,7.0,93,0.00,,,0.01,Wunderground v.1.15,2013-04-28 05:29:00,
2013-04-28 00:35:00,52.0,50.0,29.93,ENE,65,6.0,7.0,93,0.00,,,0.02,Wunderground v.1.15,2013-04-28 05:35:00,
2013-04-28 00:40:00,52.0,50.0,29.93,ENE,57,7.0,7.0,93,0.00,,,0.02,Wunderground v.1.15,2013-04-28 05:40:00,
2013-04-28 00:45:00,52.0,50.0,29.93,NE,47,7.0,8.0,93,0.00,,,0.02,Wunderground v.1.15,2013-04-28 05:45:00,
2013-04-28 00:50:00,52.1,50.1,29.93,NE,51,7.0,7.0,93,0.00,,,0.02,Wunderground v.1.15,2013-04-28 05:50:00,
2013-04-28 00:56:00,52.1,50.1,29.93,NE,54,7.0,8.0,93,0.00,,,0.03,Wunderground v.1.15,2013-04-28 05:56:00,
2013-04-28 01:01:00,52.1,50.1,29.92,ENE,64,7.0,7.0,93,0.00,,,0.03,Wunderground v.1.15,2013-04-28 06:01:00,
2013-04-28 01:07:00,52.1,50.4,29.92,ENE,57,7.0,9.0,94,0.00,,,0.03,Wunderground v.1.15,2013-04-28 06:07:00,
2013-04-28 01:12:00,52.1,50.4,29.92,ENE,59,7.0,9.0,94,0.00,,,0.03,Wunderground v.1.15,2013-04-28 06:12:00,
2013-04-28 01:17:00,52.1,50.4,29.92,ENE,58,7.0,9.0,94,0.00,,,0.03,Wunderground v.1.15,2013-04-28 06:17:00,
2013-04-28 01:22:00,52.2,50.5,29.92,NE,51,7.0,8.0,94,0.00,,,0.03,Wunderground v.1.15,2013-04-28 06:22:00,
2013-04-28 01:27:00,52.2,50.5,29.92,ENE,57,7.0,9.0,94,0.00,,,0.03,Wunderground v.1.15,2013-04-28 06:27:00,
2013-04-28 01:32:00,52.2,50.5,29.91,NE,51,7.0,9.0,94,0.00,,,0.03,Wunderground v.1.15,2013-04-28 06:32:00,
2013-04-28 01:37:00,52.2,50.5,29.91,ENE,57,8.0,9.0,94,0.00,,,0.03,Wunderground v.1.15,2013-04-28 06:37:00,
2013-04-28 01:42:00,52.2,50.5,29.91,NE,54,8.0,8.0,94,0.00,,,0.04,Wunderground v.1.15,2013-04-28 06:42:00,
2013-04-28 01:47:00,52.2,50.5,29.91,NE,54,8.0,9.0,94,0.00,,,0.04,Wunderground v.1.15,2013-04-28 06:47:00,
2013-04-28 01:52:00,52.2,50.5,29.90,NE,54,8.0,8.0,94,0.00,,,0.04,Wunderground v.1.15,2013-04-28 06:52:00,
2013-04-28 01:57:00,52.3,50.6,29.90,ENE,69,8.0,9.0,94,0.00,,,0.04,Wunderground v.1.15,2013-04-28 06:57:00,
2013-04-28 02:03:00,52.3,50.6,29.90,NE,54,8.0,8.0,94,0.00,,,0.04,Wunderground v.1.15,2013-04-28 07:03:00,
2013-04-28 02:08:00,52.3,50.6,29.89,ENE,59,8.0,9.0,94,0.00,,,0.04,Wunderground v.1.15,2013-04-28 07:08:00,
2013-04-28 02:13:00,52.3,50.6,29.89,ENE,57,8.0,10.0,94,0.00,,,0.04,Wunderground v.1.15,2013-04-28 07:13:00,
2013-04-28 02:18:00,52.4,50.7,29.89,NE,51,9.0,10.0,94,0.00,,,0.04,Wunderground v.1.15,2013-04-28 07:18:00,
2013-04-28 02:24:00,52.4,50.7,29.88,ENE,65,8.0,9.0,94,0.00,,,0.04,Wunderground v.1.15,2013-04-28 07:24:00,
2013-04-28 02:29:00,52.4,50.7,29.88,ENE,57,8.0,9.0,94,0.00,,,0.04,Wunderground v.1.15,2013-04-28 07:29:00,
2013-04-28 02:34:00,52.4,50.7,29.88,ENE,68,8.0,8.0,94,0.00,,,0.04,Wunderground v.1.15,2013-04-28 07:34:00,
2013-04-28 02:39:00,52.4,50.7,29.88,ENE,71,8.0,10.0,94,0.00,,,0.04,Wunderground v.1.15,2013-04-28 07:39:00,
2013-04-28 02:44:00,52.4,50.7,29.88,ENE,72,8.0,11.0,94,0.00,,,0.04,Wunderground v.1.15,2013-04-28 07:44:00,
2013-04-28 02:50:00,52.4,50.7,29.88,ENE,69,8.0,8.0,94,0.00,,,0.04,Wunderground v.1.15,2013-04-28 07:50:00,
2013-04-28 02:55:00,52.4,50.7,29.88,ENE,57,8.0,10.0,94,0.00,,,0.04,Wunderground v.1.15,2013-04-28 07:55:00,
2013-04-28 03:00:00,52.5,50.8,29.87,ENE,59,9.0,9.0,94,0.00,,,0.04,Wunderground v.1.15,2013-04-28 08:00:00,
2013-04-28 03:06:00,52.5,50.8,29.88,ENE,62,9.0,11.0,94,0.00,,,0.04,Wunderground v.1.15,2013-04-28 08:06:00,
2013-04-28 03:11:00,52.5,50.8,29.87,ENE,57,9.0,9.0,94,0.00,,,0.04,Wunderground v.1.15,2013-04-28 08:11:00,
2013-04-28 03:16:00,52.5,50.5,29.87,NE,52,9.0,10.0,93,0.00,,,0.04,Wunderground v.1.15,2013-04-28 08:16:00,
2013-04-28 03:21:00,52.5,50.5,29.87,ENE,57,8.0,9.0,93,0.00,,,0.04,Wunderground v.1.15,2013-04-28 08:21:00,
2013-04-28 03:26:00,52.6,50.6,29.87,ENE,59,8.0,9.0,93,0.00,,,0.04,Wunderground v.1.15,2013-04-28 08:26:00,
2013-04-28 03:32:00,52.6,50.6,29.87,NE,55,8.0,8.0,93,0.00,,,0.04,Wunderground v.1.15,2013-04-28 08:32:00,
2013-04-28 03:37:00,52.6,50.6,29.87,NE,47,8.0,9.0,93,0.00,,,0.04,Wunderground v.1.15,2013-04-28 08:37:00,
2013-04-28 03:43:00,52.6,50.6,29.86,NE,44,7.0,8.0,93,0.00,,,0.04,Wunderground v.1.15,2013-04-28 08:43:00,
2013-04-28 03:49:00,52.6,50.6,29.86,NE,54,6.0,8.0,93,0.00,,,0.04,Wunderground v.1.15,2013-04-28 08:49:00,
2013-04-28 03:54:00,52.6,50.6,29.86,NE,47,7.0,8.0,93,0.00,,,0.04,Wunderground v.1.15,2013-04-28 08:54:00,
2013-04-28 04:00:00,52.6,50.6,29.86,NE,45,6.0,6.0,93,0.00,,,0.04,Wunderground v.1.15,2013-04-28 09:00:00,
2013-04-28 04:06:00,52.5,50.5,29.86,NE,47,5.0,7.0,93,0.00,,,0.04,Wunderground v.1.15,2013-04-28 09:06:00,
2013-04-28 04:12:00,52.5,50.5,29.86,NE,47,5.0,6.0,93,0.00,,,0.04,Wunderground v.1.15,2013-04-28 09:12:00,
2013-04-28 04:17:00,52.5,50.5,29.86,NE,40,5.0,6.0,93,0.00,,,0.04,Wunderground v.1.15,2013-04-28 09:17:00,
2013-04-28 04:22:00,52.5,50.5,29.86,NE,34,4.0,5.0,93,0.00,,,0.04,Wunderground v.1.15,2013-04-28 09:22:00,
2013-04-28 04:27:00,52.5,50.5,29.86,NNE,19,3.0,5.0,93,0.00,,,0.04,Wunderground v.1.15,2013-04-28 09:27:00,
2013-04-28 04:32:00,52.4,50.4,29.86,NNE,30,3.0,3.0,93,0.00,,,0.04,Wunderground v.1.15,2013-04-28 09:32:00,
2013-04-28 04:37:00,52.4,50.4,29.86,NE,38,3.0,4.0,93,0.00,,,0.04,Wunderground v.1.15,2013-04-28 09:37:00,
2013-04-28 04:42:00,52.4,50.7,29.86,NNE,26,3.0,4.0,94,0.00,,,0.04,Wunderground v.1.15,2013-04-28 09:42:00,
2013-04-28 04:47:00,52.4,50.7,29.86,NE,38,3.0,4.0,94,0.00,,,0.04,Wunderground v.1.15,2013-04-28 09:47:00,
2013-04-28 04:52:00,52.5,50.8,29.86,NE,36,3.0,4.0,94,0.00,,,0.04,Wunderground v.1.15,2013-04-28 09:52:00,
2013-04-28 04:57:00,52.5,50.8,29.86,NNE,21,3.0,4.0,94,0.00,,,0.04,Wunderground v.1.15,2013-04-28 09:57:00,
2013-04-28 05:03:00,52.5,50.8,29.86,NE,38,4.0,5.0,94,0.00,,,0.04,Wunderground v.1.15,2013-04-28 10:03:00,
2013-04-28 05:08:00,52.5,50.8,29.86,NE,34,4.0,5.0,94,0.00,,,0.04,Wunderground v.1.15,2013-04-28 10:08:00,
2013-04-28 05:13:00,52.5,50.8,29.86,NE,47,4.0,7.0,94,0.00,,,0.05,Wunderground v.1.15,2013-04-28 10:13:00,
2013-04-28 05:18:00,52.5,50.8,29.86,NE,44,4.0,7.0,94,0.00,,,0.05,Wunderground v.1.15,2013-04-28 10:18:00,
2013-04-28 05:23:00,52.5,50.8,29.86,NE,47,5.0,8.0,94,0.00,,,0.05,Wunderground v.1.15,2013-04-28 10:23:00,
2013-04-28 05:28:00,52.5,50.8,29.86,NE,48,6.0,8.0,94,0.00,,,0.05,Wunderground v.1.15,2013-04-28 10:28:00,
2013-04-28 05:34:00,52.5,50.8,29.86,NE,47,6.0,6.0,94,0.00,,,0.05,Wunderground v.1.15,2013-04-28 10:34:00,
2013-04-28 05:39:00,52.5,50.8,29.86,NE,45,6.0,6.0,94,0.00,,,0.05,Wunderground v.1.15,2013-04-28 10:39:00,
2013-04-28 05:45:00,52.5,50.8,29.86,NE,52,6.0,7.0,94,0.00,,,0.05,Wunderground v.1.15,2013-04-28 10:45:00,
2013-04-28 05:51:00,52.6,50.9,29.85,NE,48,6.0,7.0,94,0.00,,,0.05,Wunderground v.1.15,2013-04-28 10:51:00,
2013-04-28 05:57:00,52.6,50.9,29.85,NE,41,6.0,7.0,94,0.00,,,0.05,Wunderground v.1.15,2013-04-28 10:57:00,
2013-04-28 06:02:00,52.5,50.8,29.85,NNE,33,5.0,5.0,94,0.00,,,0.05,Wunderground v.1.15,2013-04-28 11:02:00,
2013-04-28 06:07:00,52.5,50.8,29.85,NE,38,4.0,5.0,94,0.00,,,0.05,Wunderground v.1.15,2013-04-28 11:07:00,
2013-04-28 06:13:00,52.5,50.8,29.85,NNE,26,3.0,4.0,94,0.00,,,0.05,Wunderground v.1.15,2013-04-28 11:13:00,
2013-04-28 06:19:00,52.5,50.8,29.86,NNE,17,3.0,4.0,94,0.00,,,0.05,Wunderground v.1.15,2013-04-28 11:19:00,
2013-04-28 06:24:00,52.5,50.8,29.86,NNE,12,2.0,3.0,94,0.00,,,0.05,Wunderground v.1.15,2013-04-28 11:24:00,
2013-04-28 06:30:00,52.5,50.8,29.86,North,7,2.0,2.0,94,0.00,,,0.05,Wunderground v.1.15,2013-04-28 11:30:00,
2013-04-28 06:35:00,52.5,50.8,29.86,NNW,344,2.0,2.0,94,0.00,,,0.05,Wunderground v.1.15,2013-04-28 11:35:00,
2013-04-28 06:40:00,52.6,50.9,29.86,NNW,344,2.0,2.0,94,0.00,,,0.05,Wunderground v.1.15,2013-04-28 11:40:00,
2013-04-28 06:45:00,52.6,50.9,29.86,NNE,14,2.0,2.0,94,0.00,,,0.05,Wunderground v.1.15,2013-04-28 11:45:00,
2013-04-28 06:50:00,52.6,50.9,29.86,North,7,2.0,2.0,94,0.00,,,0.05,Wunderground v.1.15,2013-04-28 11:50:00,
2013-04-28 06:55:00,52.6,50.9,29.86,North,353,2.0,3.0,94,0.00,,,0.05,Wunderground v.1.15,2013-04-28 11:55:00,
2013-04-28 07:00:00,52.6,50.9,29.86,NNW,347,2.0,4.0,94,0.00,,,0.05,Wunderground v.1.15,2013-04-28 12:00:00,
2013-04-28 07:06:00,52.6,50.9,29.86,NNW,344,3.0,5.0,94,0.00,,,0.05,Wunderground v.1.15,2013-04-28 12:06:00,
2013-04-28 07:11:00,52.6,50.9,29.86,NNW,341,5.0,6.0,94,0.00,,,0.05,Wunderground v.1.15,2013-04-28 12:11:00,
2013-04-28 07:16:00,52.6,50.9,29.86,North,358,4.0,6.0,94,0.00,,,0.05,Wunderground v.1.15,2013-04-28 12:16:00,
2013-04-28 07:21:00,52.6,50.9,29.86,NNW,335,3.0,4.0,94,0.00,,,0.05,Wunderground v.1.15,2013-04-28 12:21:00,
2013-04-28 07:26:00,52.6,50.9,29.86,North,3,3.0,4.0,94,0.00,,,0.05,Wunderground v.1.15,2013-04-28 12:26:00,
2013-04-28 07:31:00,52.7,51.0,29.86,North,358,3.0,3.0,94,0.00,,,0.05,Wunderground v.1.15,2013-04-28 12:31:00,
2013-04-28 07:36:00,52.7,51.0,29.86,NNE,12,3.0,3.0,94,0.00,,,0.05,Wunderground v.1.15,2013-04-28 12:36:00,
2013-04-28 07:41:00,52.8,51.1,29.86,NNE,27,3.0,3.0,94,0.00,,,0.05,Wunderground v.1.15,2013-04-28 12:41:00,
2013-04-28 07:46:00,52.8,51.1,29.86,NNE,19,3.0,3.0,94,0.00,,,0.05,Wunderground v.1.15,2013-04-28 12:46:00,
2013-04-28 07:51:00,52.8,51.1,29.86,NNE,26,3.0,5.0,94,0.00,,,0.05,Wunderground v.1.15,2013-04-28 12:51:00,
2013-04-28 07:56:00,52.8,51.1,29.85,NE,38,4.0,5.0,94,0.00,,,0.05,Wunderground v.1.15,2013-04-28 12:56:00,
2013-04-28 08:02:00,52.9,51.2,29.85,NNE,30,4.0,4.0,94,0.00,,,0.05,Wunderground v.1.15,2013-04-28 13:02:00,
2013-04-28 08:07:00,53.0,51.3,29.85,NNE,29,4.0,4.0,94,0.00,,,0.05,Wunderground v.1.15,2013-04-28 13:07:00,
2013-04-28 08:12:00,53.1,51.4,29.85,NNE,27,3.0,4.0,94,0.00,,,0.05,Wunderground v.1.15,2013-04-28 13:12:00,
2013-04-28 08:17:00,53.1,51.4,29.85,NNE,27,3.0,4.0,94,0.00,,,0.05,Wunderground v.1.15,2013-04-28 13:17:00,
2013-04-28 08:23:00,53.1,51.4,29.86,NNW,344,3.0,7.0,94,0.00,,,0.05,Wunderground v.1.15,2013-04-28 13:23:00,
2013-04-28 08:28:00,53.1,51.4,29.86,North,358,5.0,8.0,94,0.00,,,0.05,Wunderground v.1.15,2013-04-28 13:28:00,
2013-04-28 08:33:00,53.1,51.4,29.86,North,358,5.0,5.0,94,0.00,,,0.05,Wunderground v.1.15,2013-04-28 13:33:00,
2013-04-28 08:38:00,53.2,51.5,29.86,NNE,29,4.0,5.0,94,0.00,,,0.05,Wunderground v.1.15,2013-04-28 13:38:00,
2013-04-28 08:44:00,53.2,51.5,29.86,North,357,3.0,6.0,94,0.00,,,0.05,Wunderground v.1.15,2013-04-28 13:44:00,
2013-04-28 08:49:00,53.2,51.5,29.85,North,9,4.0,6.0,94,0.00,,,0.05,Wunderground v.1.15,2013-04-28 13:49:00,
2013-04-28 08:54:00,53.3,51.6,29.85,NNE,31,4.0,4.0,94,0.00,,,0.05,Wunderground v.1.15,2013-04-28 13:54:00,
2013-04-28 08:59:00,53.3,51.6,29.85,NNE,24,3.0,4.0,94,0.00,,,0.05,Wunderground v.1.15,2013-04-28 13:59:00,
2013-04-28 09:05:00,53.4,51.7,29.85,NNE,17,3.0,5.0,94,0.00,,,0.05,Wunderground v.1.15,2013-04-28 14:05:00,
2013-04-28 09:10:00,53.4,51.7,29.85,North,349,4.0,5.0,94,0.00,,,0.05,Wunderground v.1.15,2013-04-28 14:10:00,
2013-04-28 09:15:00,53.4,51.7,29.85,NNW,334,4.0,5.0,94,0.00,,,0.05,Wunderground v.1.15,2013-04-28 14:15:00,
2013-04-28 09:20:00,53.5,51.8,29.86,NNE,17,4.0,4.0,94,0.00,,,0.05,Wunderground v.1.15,2013-04-28 14:20:00,
2013-04-28 09:25:00,53.5,51.8,29.86,NNE,30,3.0,5.0,94,0.00,,,0.05,Wunderground v.1.15,2013-04-28 14:25:00,
2013-04-28 09:30:00,53.5,51.8,29.86,NE,43,3.0,4.0,94,0.00,,,0.05,Wunderground v.1.15,2013-04-28 14:30:00,
2013-04-28 09:35:00,53.6,51.9,29.86,NNW,345,3.0,4.0,94,0.00,,,0.05,Wunderground v.1.15,2013-04-28 14:35:00,
2013-04-28 09:40:00,53.7,52.0,29.86,North,7,3.0,3.0,94,0.00,,,0.05,Wunderground v.1.15,2013-04-28 14:40:00,
2013-04-28 09:45:00,53.7,52.0,29.86,NNE,20,3.0,6.0,94,0.00,,,0.05,Wunderground v.1.15,2013-04-28 14:45:00,
2013-04-28 09:50:00,53.8,52.1,29.86,North,353,4.0,4.0,94,0.00,,,0.05,Wunderground v.1.15,2013-04-28 14:50:00,
2013-04-28 09:55:00,53.8,52.1,29.86,North,355,4.0,7.0,94,0.00,,,0.05,Wunderground v.1.15,2013-04-28 14:55:00,
2013-04-28 10:00:00,53.7,51.7,29.86,North,355,6.0,6.0,93,0.00,,,0.05,Wunderground v.1.15,2013-04-28 15:00:00,
2013-04-28 10:06:00,53.8,51.8,29.86,North,353,6.0,7.0,93,0.00,,,0.05,Wunderground v.1.15,2013-04-28 15:06:00,
2013-04-28 10:11:00,53.9,51.9,29.86,NNW,332,6.0,7.0,93,0.00,,,0.05,Wunderground v.1.15,2013-04-28 15:11:00,
2013-04-28 10:16:00,53.8,51.8,29.86,NNE,26,6.0,7.0,93,0.00,,,0.05,Wunderground v.1.15,2013-04-28 15:16:00,
2013-04-28 10:21:00,54.0,52.0,29.86,North,349,6.0,7.0,93,0.00,,,0.05,Wunderground v.1.15,2013-04-28 15:21:00,
2013-04-28 10:26:00,53.9,51.9,29.86,North,353,6.0,8.0,93,0.00,,,0.05,Wunderground v.1.15,2013-04-28 15:26:00,
2013-04-28 10:31:00,54.1,52.1,29.86,NNW,345,6.0,7.0,93,0.00,,,0.05,Wunderground v.1.15,2013-04-28 15:31:00,
2013-04-28 10:36:00,54.2,52.2,29.86,NNW,345,5.0,7.0,93,0.00,,,0.05,Wunderground v.1.15,2013-04-28 15:36:00,
2013-04-28 10:41:00,54.2,52.2,29.86,NNW,339,6.0,7.0,93,0.00,,,0.05,Wunderground v.1.15,2013-04-28 15:41:00,
2013-04-28 10:46:00,54.2,52.2,29.86,WNW,293,6.0,7.0,93,0.00,,,0.05,Wunderground v.1.15,2013-04-28 15:46:00,
2013-04-28 10:51:00,54.2,52.2,29.86,NNW,336,6.0,7.0,93,0.00,,,0.05,Wunderground v.1.15,2013-04-28 15:51:00,
2013-04-28 10:57:00,54.2,52.2,29.86,NNW,327,6.0,8.0,93,0.00,,,0.05,Wunderground v.1.15,2013-04-28 15:57:00,
2013-04-28 11:02:00,54.3,52.0,29.86,NW,312,7.0,8.0,92,0.00,,,0.05,Wunderground v.1.15,2013-04-28 16:02:00,
2013-04-28 11:07:00,54.3,52.0,29.86,NW,317,6.0,8.0,92,0.00,,,0.05,Wunderground v.1.15,2013-04-28 16:07:00,
2013-04-28 11:12:00,54.4,52.1,29.86,NW,314,6.0,8.0,92,0.00,,,0.05,Wunderground v.1.15,2013-04-28 16:12:00,
2013-04-28 11:17:00,54.5,52.2,29.86,WNW,298,5.0,10.0,92,0.00,,,0.05,Wunderground v.1.15,2013-04-28 16:17:00,
2013-04-28 11:22:00,54.4,52.1,29.86,WNW,294,6.0,10.0,92,0.00,,,0.05,Wunderground v.1.15,2013-04-28 16:22:00,
2013-04-28 11:27:00,54.5,52.2,29.86,NNW,336,7.0,10.0,92,0.00,,,0.05,Wunderground v.1.15,2013-04-28 16:27:00,
2013-04-28 11:32:00,54.6,52.3,29.86,NNW,333,7.0,8.0,92,0.00,,,0.05,Wunderground v.1.15,2013-04-28 16:32:00,
2013-04-28 11:37:00,54.8,52.5,29.86,NNW,331,7.0,8.0,92,0.00,,,0.05,Wunderground v.1.15,2013-04-28 16:37:00,
2013-04-28 11:42:00,54.7,52.4,29.86,WNW,287,7.0,9.0,92,0.00,,,0.05,Wunderground v.1.15,2013-04-28 16:42:00,
2013-04-28 11:47:00,54.7,52.4,29.86,NW,313,8.0,10.0,92,0.00,,,0.05,Wunderground v.1.15,2013-04-28 16:47:00,
2013-04-28 11:52:00,54.8,52.5,29.86,WNW,299,7.0,9.0,92,0.00,,,0.05,Wunderground v.1.15,2013-04-28 16:52:00,
2013-04-28 11:57:00,54.7,52.4,29.86,NNW,334,6.0,9.0,92,0.00,,,0.05,Wunderground v.1.15,2013-04-28 16:57:00,
2013-04-28 12:03:00,54.7,52.4,29.86,NW,306,7.0,7.0,92,0.00,,,0.05,Wunderground v.1.15,2013-04-28 17:03:00,
2013-04-28 12:08:00,54.7,52.4,29.86,NNW,341,7.0,10.0,92,0.00,,,0.05,Wunderground v.1.15,2013-04-28 17:08:00,
2013-04-28 12:13:00,54.9,52.9,29.86,NW,322,7.0,10.0,93,0.00,,,0.05,Wunderground v.1.15,2013-04-28 17:13:00,
2013-04-28 12:18:00,55.1,52.8,29.86,NW,317,7.0,10.0,92,0.00,,,0.05,Wunderground v.1.15,2013-04-28 17:18:00,
2013-04-28 12:23:00,55.3,53.0,29.86,NW,311,7.0,9.0,92,0.00,,,0.05,Wunderground v.1.15,2013-04-28 17:23:00,
2013-04-28 12:28:00,55.3,53.0,29.86,NW,312,7.0,9.0,92,0.00,,,0.05,Wunderground v.1.15,2013-04-28 17:28:00,
2013-04-28 12:33:00,55.4,53.1,29.86,NNW,333,7.0,9.0,92,0.00,,,0.05,Wunderground v.1.15,2013-04-28 17:33:00,
2013-04-28 12:38:00,55.6,53.0,29.86,NNW,346,7.0,10.0,91,0.00,,,0.05,Wunderground v.1.15,2013-04-28 17:38:00,
2013-04-28 12:43:00,55.8,53.2,29.85,NNW,341,7.0,8.0,91,0.00,,,0.05,Wunderground v.1.15,2013-04-28 17:43:00,
2013-04-28 12:48:00,56.3,53.7,29.85,NNW,332,6.0,8.0,91,0.00,,,0.05,Wunderground v.1.15,2013-04-28 17:48:00,
2013-04-28 12:53:00,56.5,53.9,29.85,NNW,345,6.0,7.0,91,0.00,,,0.05,Wunderground v.1.15,2013-04-28 17:53:00,
2013-04-28 12:59:00,56.5,53.6,29.85,NNW,331,7.0,11.0,90,0.00,,,0.05,Wunderground v.1.15,2013-04-28 17:59:00,
2013-04-28 13:05:00,56.7,54.1,29.85,NNW,336,7.0,9.0,91,0.00,,,0.05,Wunderground v.1.15,2013-04-28 18:05:00,
2013-04-28 13:10:00,56.8,53.9,29.85,NNE,21,7.0,7.0,90,0.00,,,0.05,Wunderground v.1.15,2013-04-28 18:10:00,
2013-04-28 13:16:00,57.2,54.0,29.85,North,355,7.0,11.0,89,0.00,,,0.05,Wunderground v.1.15,2013-04-28 18:16:00,
2013-04-28 13:21:00,57.6,55.0,29.85,NNW,348,8.0,8.0,91,0.00,,,0.05,Wunderground v.1.15,2013-04-28 18:21:00,
2013-04-28 13:26:00,57.7,54.8,29.84,NW,320,7.0,9.0,90,0.00,,,0.05,Wunderground v.1.15,2013-04-28 18:26:00,
2013-04-28 13:31:00,58.2,55.0,29.84,NW,323,7.0,7.0,89,0.00,,,0.05,Wunderground v.1.15,2013-04-28 18:31:00,
2013-04-28 13:36:00,58.7,55.5,29.84,West,279,6.0,9.0,89,0.00,,,0.05,Wunderground v.1.15,2013-04-28 18:36:00,
2013-04-28 13:41:00,58.7,55.5,29.84,NW,325,6.0,6.0,89,0.00,,,0.05,Wunderground v.1.15,2013-04-28 18:41:00,
2013-04-28 13:46:00,58.5,55.0,29.84,NW,313,6.0,8.0,88,0.00,,,0.05,Wunderground v.1.15,2013-04-28 18:46:00,
2013-04-28 13:51:00,58.3,54.8,29.85,NNW,327,7.0,8.0,88,0.00,,,0.05,Wunderground v.1.15,2013-04-28 18:51:00,
2013-04-28 13:56:00,58.5,55.0,29.85,NNW,341,6.0,8.0,88,0.00,,,0.05,Wunderground v.1.15,2013-04-28 18:56:00,
2013-04-28 14:02:00,58.7,54.8,29.85,WNW,301,4.0,5.0,87,0.00,,,0.05,Wunderground v.1.15,2013-04-28 19:02:00,
2013-04-28 14:08:00,59.0,55.4,29.85,NNW,341,5.0,8.0,88,0.00,,,0.05,Wunderground v.1.15,2013-04-28 19:08:00,
2013-04-28 14:13:00,59.1,55.2,29.85,WNW,289,5.0,5.0,87,0.00,,,0.05,Wunderground v.1.15,2013-04-28 19:13:00,
2013-04-28 14:18:00,59.4,55.8,29.85,WNW,286,4.0,5.0,88,0.00,,,0.05,Wunderground v.1.15,2013-04-28 19:18:00,
2013-04-28 14:23:00,59.3,55.4,29.85,WNW,298,5.0,10.0,87,0.00,,,0.05,Wunderground v.1.15,2013-04-28 19:23:00,
2013-04-28 14:28:00,59.0,54.8,29.85,WNW,296,7.0,10.0,86,0.00,,,0.05,Wunderground v.1.15,2013-04-28 19:28:00,
2013-04-28 14:33:00,59.1,54.9,29.85,WNW,293,7.0,8.0,86,0.00,,,0.05,Wunderground v.1.15,2013-04-28 19:33:00,
2013-04-28 14:38:00,59.7,55.8,29.84,NNW,338,6.0,9.0,87,0.00,,,0.05,Wunderground v.1.15,2013-04-28 19:38:00,
2013-04-28 14:43:00,59.9,55.1,29.84,NW,325,6.0,6.0,84,0.00,,,0.05,Wunderground v.1.15,2013-04-28 19:43:00,
2013-04-28 14:48:00,59.8,55.3,29.84,NNW,327,5.0,6.0,85,0.00,,,0.05,Wunderground v.1.15,2013-04-28 19:48:00,
2013-04-28 14:53:00,59.7,55.2,29.84,NW,320,6.0,8.0,85,0.00,,,0.05,Wunderground v.1.15,2013-04-28 19:53:00,
2013-04-28 14:58:00,59.8,55.3,29.84,WNW,299,6.0,9.0,85,0.00,,,0.05,Wunderground v.1.15,2013-04-28 19:58:00,
2013-04-28 15:04:00,59.6,55.7,29.83,WNW,290,7.0,9.0,87,0.00,,,0.05,Wunderground v.1.15,2013-04-28 20:04:00,
2013-04-28 15:09:00,59.4,55.2,29.83,West,261,7.0,9.0,86,0.00,,,0.05,Wunderground v.1.15,2013-04-28 20:09:00,
2013-04-28 15:14:00,59.8,55.3,29.83,WNW,292,5.0,7.0,85,0.00,,,0.05,Wunderground v.1.15,2013-04-28 20:14:00,
2013-04-28 15:19:00,60.2,56.0,29.83,WNW,291,5.0,8.0,86,0.00,,,0.05,Wunderground v.1.15,2013-04-28 20:19:00,
2013-04-28 15:24:00,60.5,56.0,29.83,NW,325,5.0,6.0,85,0.00,,,0.05,Wunderground v.1.15,2013-04-28 20:24:00,
2013-04-28 15:29:00,60.6,55.7,29.83,NW,324,6.0,9.0,84,0.00,,,0.05,Wunderground v.1.15,2013-04-28 20:29:00,
2013-04-28 15:34:00,60.7,55.5,29.83,WNW,293,5.0,12.0,83,0.00,,,0.05,Wunderground v.1.15,2013-04-28 20:34:00,
2013-04-28 15:39:00,61.2,55.7,29.82,NW,307,5.0,12.0,82,0.00,,,0.05,Wunderground v.1.15,2013-04-28 20:39:00,
2013-04-28 15:44:00,61.2,55.7,29.82,WNW,294,5.0,7.0,82,0.00,,,0.05,Wunderground v.1.15,2013-04-28 20:44:00,
2013-04-28 15:49:00,61.4,55.5,29.82,NW,316,6.0,11.0,81,0.00,,,0.05,Wunderground v.1.15,2013-04-28 20:49:00,
2013-04-28 15:54:00,61.8,55.6,29.82,WNW,296,7.0,9.0,80,0.00,,,0.05,Wunderground v.1.15,2013-04-28 20:54:00,
2013-04-28 15:59:00,62.5,55.9,29.82,WNW,296,6.0,11.0,79,0.00,,,0.05,Wunderground v.1.15,2013-04-28 20:59:00,
2013-04-28 16:05:00,62.2,55.6,29.82,WNW,290,7.0,9.0,79,0.00,,,0.05,Wunderground v.1.15,2013-04-28 21:05:00,
2013-04-28 16:10:00,62.1,55.9,29.81,North,349,8.0,8.0,80,0.00,,,0.05,Wunderground v.1.15,2013-04-28 21:10:00,
2013-04-28 16:15:00,61.9,55.7,29.81,NNW,332,7.0,8.0,80,0.00,,,0.05,Wunderground v.1.15,2013-04-28 21:15:00,
2013-04-28 16:20:00,61.9,56.0,29.81,NNW,334,6.0,6.0,81,0.00,,,0.05,Wunderground v.1.15,2013-04-28 21:20:00,
2013-04-28 16:25:00,61.9,56.0,29.81,NNW,344,6.0,7.0,81,0.00,,,0.05,Wunderground v.1.15,2013-04-28 21:25:00,
2013-04-28 16:30:00,61.8,55.9,29.81,WNW,284,5.0,5.0,81,0.00,,,0.05,Wunderground v.1.15,2013-04-28 21:30:00,
2013-04-28 16:35:00,61.8,55.9,29.81,WNW,284,4.0,5.0,81,0.00,,,0.05,Wunderground v.1.15,2013-04-28 21:35:00,
2013-04-28 16:40:00,61.7,55.8,29.81,WNW,296,5.0,5.0,81,0.00,,,0.05,Wunderground v.1.15,2013-04-28 21:40:00,
2013-04-28 16:45:00,61.7,55.5,29.81,West,280,5.0,7.0,80,0.00,,,0.05,Wunderground v.1.15,2013-04-28 21:45:00,
2013-04-28 16:50:00,61.7,55.8,29.82,WNW,298,5.0,5.0,81,0.00,,,0.05,Wunderground v.1.15,2013-04-28 21:50:00,
2013-04-28 16:55:00,61.7,55.8,29.81,WNW,284,4.0,5.0,81,0.00,,,0.05,Wunderground v.1.15,2013-04-28 21:55:00,
2013-04-28 17:00:00,61.6,55.4,29.82,West,279,3.0,3.0,80,0.00,,,0.05,Wunderground v.1.15,2013-04-28 22:00:00,
2013-04-28 17:06:00,61.7,55.8,29.82,West,281,2.0,4.0,81,0.00,,,0.05,Wunderground v.1.15,2013-04-28 22:06:00,
2013-04-28 17:11:00,61.6,55.7,29.82,West,280,2.0,2.0,81,0.00,,,0.05,Wunderground v.1.15,2013-04-28 22:11:00,
2013-04-28 17:16:00,61.7,56.1,29.82,West,280,2.0,2.0,82,0.00,,,0.05,Wunderground v.1.15,2013-04-28 22:16:00,
2013-04-28 17:22:00,61.6,55.7,29.82,West,276,2.0,2.0,81,0.00,,,0.05,Wunderground v.1.15,2013-04-28 22:22:00,
2013-04-28 17:27:00,61.7,56.5,29.82,West,265,2.0,2.0,83,0.00,,,0.05,Wunderground v.1.15,2013-04-28 22:27:00,
2013-04-28 17:32:00,61.6,56.0,29.82,West,269,2.0,3.0,82,0.00,,,0.05,Wunderground v.1.15,2013-04-28 22:32:00,
2013-04-28 17:37:00,61.7,55.8,29.82,West,269,1.0,3.0,81,0.00,,,0.05,Wunderground v.1.15,2013-04-28 22:37:00,
2013-04-28 17:42:00,61.7,55.5,29.83,West,269,0.0,2.0,80,0.00,,,0.05,Wunderground v.1.15,2013-04-28 22:42:00,
2013-04-28 17:47:00,61.7,56.1,29.83,WSW,249,1.0,2.0,82,0.00,,,0.05,Wunderground v.1.15,2013-04-28 22:47:00,
2013-04-28 17:52:00,61.7,55.8,29.82,WSW,244,1.0,2.0,81,0.00,,,0.05,Wunderground v.1.15,2013-04-28 22:52:00,
2013-04-28 17:57:00,61.7,56.5,29.82,WSW,248,1.0,2.0,83,0.00,,,0.05,Wunderground v.1.15,2013-04-28 22:57:00,
2013-04-28 18:03:00,61.7,55.8,29.83,WSW,239,1.0,2.0,81,0.00,,,0.05,Wunderground v.1.15,2013-04-28 23:03:00,
2013-04-28 18:08:00,61.7,56.1,29.82,WSW,241,2.0,3.0,82,0.00,,,0.05,Wunderground v.1.15,2013-04-28 23:08:00,
2013-04-28 18:14:00,61.7,55.8,29.82,WSW,239,1.0,2.0,81,0.00,,,0.05,Wunderground v.1.15,2013-04-28 23:14:00,
2013-04-28 18:19:00,61.8,55.9,29.82,WSW,239,0.0,2.0,81,0.00,,,0.05,Wunderground v.1.15,2013-04-28 23:19:00,
2013-04-28 18:24:00,61.8,55.9,29.82,WSW,239,0.0,0.0,81,0.00,,,0.05,Wunderground v.1.15,2013-04-28 23:24:00,
2013-04-28 18:29:00,61.9,55.7,29.82,SW,228,0.0,2.0,80,0.00,,,0.05,Wunderground v.1.15,2013-04-28 23:29:00,
2013-04-28 18:34:00,61.9,55.7,29.82,SSW,207,1.0,2.0,80,0.00,,,0.05,Wunderground v.1.15,2013-04-28 23:34:00,
2013-04-28 18:39:00,61.9,56.0,29.82,SW,217,1.0,2.0,81,0.00,,,0.05,Wunderground v.1.15,2013-04-28 23:39:00,
2013-04-28 18:44:00,61.9,56.0,29.82,SW,218,1.0,2.0,81,0.00,,,0.05,Wunderground v.1.15,2013-04-28 23:44:00,
2013-04-28 18:50:00,61.7,56.8,29.81,SW,225,2.0,2.0,84,0.00,,,0.05,Wunderground v.1.15,2013-04-28 23:50:00,
2013-04-28 18:55:00,61.4,56.5,29.81,SSW,213,4.0,6.0,84,0.00,,,0.05,Wunderground v.1.15,2013-04-28 23:55:00,
2013-04-28 19:00:00,61.2,57.0,29.81,SW,216,5.0,5.0,86,0.00,,,0.05,Wunderground v.1.15,2013-04-29 00:00:00,
2013-04-28 19:06:00,61.0,56.8,29.81,SW,222,4.0,5.0,86,0.00,,,0.05,Wunderground v.1.15,2013-04-29 00:06:00,
2013-04-28 19:11:00,61.1,56.9,29.81,SSW,206,4.0,4.0,86,0.00,,,0.05,Wunderground v.1.15,2013-04-29 00:11:00,
2013-04-28 19:17:00,61.1,56.9,29.81,SSW,211,4.0,7.0,86,0.00,,,0.05,Wunderground v.1.15,2013-04-29 00:17:00,
2013-04-28 19:22:00,60.9,57.0,29.81,SSW,213,5.0,6.0,87,0.00,,,0.05,Wunderground v.1.15,2013-04-29 00:22:00,
2013-04-28 19:27:00,60.7,56.5,29.81,SW,220,5.0,6.0,86,0.00,,,0.05,Wunderground v.1.15,2013-04-29 00:27:00,
2013-04-28 19:32:00,60.5,56.6,29.81,SW,227,5.0,6.0,87,0.00,,,0.05,Wunderground v.1.15,2013-04-29 00:32:00,
2013-04-28 19:37:00,60.3,56.4,29.81,SW,226,4.0,6.0,87,0.00,,,0.05,Wunderground v.1.15,2013-04-29 00:37:00,
2013-04-28 19:42:00,60.1,56.2,29.81,SW,227,4.0,5.0,87,0.00,,,0.05,Wunderground v.1.15,2013-04-29 00:42:00,
2013-04-28 19:48:00,59.8,55.9,29.81,SW,219,5.0,5.0,87,0.00,,,0.05,Wunderground v.1.15,2013-04-29 00:48:00,
2013-04-28 19:53:00,59.4,55.8,29.81,SW,225,4.0,5.0,88,0.00,,,0.05,Wunderground v.1.15,2013-04-29 00:53:00,
2013-04-28 19:58:00,58.9,55.4,29.81,SW,226,4.0,5.0,88,0.00,,,0.05,Wunderground v.1.15,2013-04-29 00:58:00,
2013-04-28 20:04:00,58.6,55.1,29.82,SW,216,4.0,4.0,88,0.00,,,0.05,Wunderground v.1.15,2013-04-29 01:04:00,
2013-04-28 20:10:00,58.4,55.2,29.82,SW,216,4.0,4.0,89,0.00,,,0.05,Wunderground v.1.15,2013-04-29 01:10:00,
2013-04-28 20:16:00,57.8,54.6,29.82,SW,215,4.0,5.0,89,0.00,,,0.05,Wunderground v.1.15,2013-04-29 01:16:00,
2013-04-28 20:22:00,57.4,54.2,29.82,SW,215,5.0,5.0,89,0.00,,,0.05,Wunderground v.1.15,2013-04-29 01:22:00,
2013-04-28 20:27:00,57.3,54.1,29.82,SSW,209,4.0,5.0,89,0.00,,,0.05,Wunderground v.1.15,2013-04-29 01:27:00,
2013-04-28 20:32:00,57.4,54.2,29.82,SSW,205,4.0,4.0,89,0.00,,,0.05,Wunderground v.1.15,2013-04-29 01:32:00,
2013-04-28 20:37:00,57.4,54.2,29.82,SSW,204,4.0,6.0,89,0.00,,,0.05,Wunderground v.1.15,2013-04-29 01:37:00,
2013-04-28 20:42:00,57.3,54.1,29.82,SSW,208,5.0,5.0,89,0.00,,,0.05,Wunderground v.1.15,2013-04-29 01:42:00,
2013-04-28 20:48:00,56.6,53.4,29.82,SSW,205,5.0,5.0,89,0.00,,,0.05,Wunderground v.1.15,2013-04-29 01:48:00,
2013-04-28 20:53:00,56.1,52.9,29.83,SSW,211,5.0,6.0,89,0.00,,,0.05,Wunderground v.1.15,2013-04-29 01:53:00,
2013-04-28 20:58:00,55.8,52.9,29.83,SSW,212,5.0,6.0,90,0.00,,,0.05,Wunderground v.1.15,2013-04-29 01:58:00,
2013-04-28 21:03:00,55.6,52.7,29.83,SSW,204,6.0,6.0,90,0.00,,,0.05,Wunderground v.1.15,2013-04-29 02:03:00,
2013-04-28 21:09:00,55.3,52.4,29.83,SW,219,6.0,6.0,90,0.00,,,0.05,Wunderground v.1.15,2013-04-29 02:09:00,
2013-04-28 21:15:00,55.2,52.6,29.83,SW,220,6.0,6.0,91,0.00,,,0.05,Wunderground v.1.15,2013-04-29 02:15:00,
2013-04-28 21:20:00,55.4,52.8,29.83,SW,222,7.0,7.0,91,0.00,,,0.05,Wunderground v.1.15,2013-04-29 02:20:00,
2013-04-28 21:26:00,55.4,52.5,29.83,SW,219,7.0,7.0,90,0.00,,,0.05,Wunderground v.1.15,2013-04-29 02:26:00,
2013-04-28 21:31:00,55.1,52.2,29.84,SW,220,6.0,6.0,90,0.00,,,0.05,Wunderground v.1.15,2013-04-29 02:31:00,
2013-04-28 21:36:00,54.7,52.1,29.84,SSW,209,5.0,6.0,91,0.00,,,0.05,Wunderground v.1.15,2013-04-29 02:36:00,
2013-04-28 21:41:00,54.5,51.9,29.84,SW,224,5.0,5.0,91,0.00,,,0.05,Wunderground v.1.15,2013-04-29 02:41:00,
2013-04-28 21:46:00,54.2,51.6,29.84,SW,220,5.0,5.0,91,0.00,,,0.05,Wunderground v.1.15,2013-04-29 02:46:00,
2013-04-28 21:51:00,53.7,51.1,29.84,SW,223,5.0,5.0,91,0.00,,,0.05,Wunderground v.1.15,2013-04-29 02:51:00,
2013-04-28 21:57:00,53.6,51.0,29.84,SW,227,5.0,6.0,91,0.00,,,0.05,Wunderground v.1.15,2013-04-29 02:57:00,
2013-04-28 22:02:00,53.7,51.1,29.84,SW,234,5.0,6.0,91,0.00,,,0.05,Wunderground v.1.15,2013-04-29 03:02:00,
2013-04-28 22:07:00,53.7,51.1,29.84,SW,229,5.0,6.0,91,0.00,,,0.05,Wunderground v.1.15,2013-04-29 03:07:00,
2013-04-28 22:12:00,53.6,51.0,29.84,SW,229,5.0,6.0,91,0.00,,,0.05,Wunderground v.1.15,2013-04-29 03:12:00,
2013-04-28 22:17:00,53.6,51.0,29.84,SW,235,6.0,6.0,91,0.00,,,0.05,Wunderground v.1.15,2013-04-29 03:17:00,
2013-04-28 22:22:00,53.6,51.0,29.83,SW,232,6.0,6.0,91,0.00,,,0.05,Wunderground v.1.15,2013-04-29 03:22:00,
2013-04-28 22:27:00,53.4,50.8,29.84,SW,235,5.0,7.0,91,0.00,,,0.05,Wunderground v.1.15,2013-04-29 03:27:00,
2013-04-28 22:32:00,53.4,51.1,29.84,SW,230,5.0,6.0,92,0.00,,,0.05,Wunderground v.1.15,2013-04-29 03:32:00,
2013-04-28 22:37:00,53.2,50.9,29.84,SW,236,5.0,6.0,92,0.00,,,0.05,Wunderground v.1.15,2013-04-29 03:37:00,
2013-04-28 22:42:00,53.1,50.8,29.84,SW,234,6.0,7.0,92,0.00,,,0.05,Wunderground v.1.15,2013-04-29 03:42:00,
2013-04-28 22:47:00,53.0,50.7,29.85,SW,233,6.0,7.0,92,0.00,,,0.05,Wunderground v.1.15,2013-04-29 03:47:00,
2013-04-28 22:52:00,52.9,50.6,29.85,WSW,237,5.0,6.0,92,0.00,,,0.05,Wunderground v.1.15,2013-04-29 03:52:00,
2013-04-28 22:57:00,52.6,50.3,29.85,SW,232,5.0,7.0,92,0.00,,,0.05,Wunderground v.1.15,2013-04-29 03:57:00,
2013-04-28 23:01:00,52.6,50.3,29.85,WSW,239,6.0,7.0,92,0.00,,,0.05,Wunderground v.1.15,2013-04-29 04:01:00,
2013-04-28 23:02:00,52.6,50.3,29.85,SW,233,6.0,7.0,92,0.00,,,0.05,Wunderground v.1.15,2013-04-29 04:02:00,
2013-04-28 23:03:00,52.6,50.3,29.85,SW,230,6.0,7.0,92,0.00,,,0.05,Wunderground v.1.15,2013-04-29 04:03:00,
2013-04-28 23:04:00,52.6,50.3,29.85,SW,235,6.0,7.0,92,0.00,,,0.05,Wunderground v.1.15,2013-04-29 04:04:00,
2013-04-28 23:05:00,52.6,50.3,29.84,SW,233,6.0,7.0,92,0.00,,,0.05,Wunderground v.1.15,2013-04-29 04:05:00,
2013-04-28 23:10:00,52.7,50.4,29.85,WSW,242,6.0,7.0,92,0.00,,,0.05,Wunderground v.1.15,2013-04-29 04:10:00,
2013-04-28 23:15:00,52.6,50.0,29.85,WSW,237,6.0,7.0,91,0.00,,,0.05,Wunderground v.1.15,2013-04-29 04:15:00,
2013-04-28 23:20:00,52.4,49.8,29.85,WSW,237,6.0,6.0,91,0.00,,,0.05,Wunderground v.1.15,2013-04-29 04:20:00,
2013-04-28 23:25:00,52.2,49.7,29.85,SW,235,6.0,7.0,91,0.00,,,0.05,Wunderground v.1.15,2013-04-29 04:25:00,
2013-04-28 23:30:00,52.0,49.5,29.85,SW,236,6.0,7.0,91,0.00,,,0.05,Wunderground v.1.15,2013-04-29 04:30:00,
2013-04-28 23:35:00,51.8,49.3,29.85,SW,236,6.0,7.0,91,0.00,,,0.05,Wunderground v.1.15,2013-04-29 04:35:00,
2013-04-28 23:40:00,51.7,49.5,29.85,WSW,242,6.0,6.0,92,0.00,,,0.05,Wunderground v.1.15,2013-04-29 04:40:00,
2013-04-28 23:45:00,51.6,49.4,29.85,WSW,241,6.0,7.0,92,0.00,,,0.05,Wunderground v.1.15,2013-04-29 04:45:00,
2013-04-28 23:50:00,51.7,49.5,29.85,WSW,244,6.0,7.0,92,0.00,,,0.05,Wunderground v.1.15,2013-04-29 04:50:00,
2013-04-28 23:55:00,51.8,49.5,29.85,WSW,244,7.0,8.0,92,0.00,,,0.05,Wunderground v.1.15,2013-04-29 04:55:00,